Location: Le Plessis-Placy
(49.0579°N, 2.9892°E)
Time: 19:48:45
(UTC+00:00)

Daily predictions for brighter satellites

Satellite Brightness Start Highest point End
(mag) Time Altitude Azimuth Time Altitude Azimuth Time Altitude Azimuth
Cosmos 2266 Rocket 4.0 16:57:58 10° N 17:04:13 82° E 17:10:33 10° S
Cosmos 1809 Rocket 4.5 16:58:17 10° N 17:04:27 71° ENE 17:10:32 10° SSE
CZ-4C R/B 4.0 17:00:01 10° NW 17:04:46 23° N 17:10:14 10° NE
COSMOS 2487 2.8 17:03:03 10° NNW 17:06:30 71° WSW 17:09:55 10° SSE
Cosmos 1328 3.7 17:03:27 10° N 17:07:25 77° E 17:11:22 10° SSE
Cosmos 2219 3.8 17:02:02 10° NNW 17:07:25 38° NE 17:12:46 10° ESE
Cosmos 1939 Rocket 3.7 17:04:06 10° SE 17:07:32 29° ENE 17:10:55 10° N
Helios 1A Rocket 4.0 17:06:26 10° ESE 17:09:45 24° ENE 17:13:03 10° N
Cosmos 1110 Rocket 4.3 17:06:01 10° S 17:11:03 48° ESE 17:16:04 10° NNE
Cosmos 1602 Rocket 4.5 17:10:13 10° NNW 17:14:37 56° W 17:18:58 10° S
Cosmos 1943 Rocket 4.1 17:11:32 10° W 17:16:02 25° NW 17:20:32 10° N
Cosmos 44 3.9 17:13:21 10° S 17:17:23 33° ESE 17:21:39 10° NE
Aureole 3 Rocket 4.2 17:15:19 10° SE 17:18:41 26° E 17:22:59 10° NNE
CZ-2C R/B 4.1 17:14:18 10° ESE 17:19:10 29° ENE 17:23:54 10° N
Envisat 4.0 17:15:41 10° S 17:20:38 52° W 17:25:37 10° NNW
NOSS 2-2 (C) 4.5 17:16:05 10° NW 17:21:16 61° NE 17:28:28 10° SE
Cosmos 1953 Rocket 3.7 17:19:26 10° N 17:23:45 52° ENE 17:28:06 10° SSE
Cosmos 2058 4.3 17:23:08 10° NNE 17:25:56 18° ENE 17:28:44 10° ESE
ATLAS 5 CENTAUR R/B 3.4 17:22:38 10° W 17:26:17 25° NNW 17:30:23 10° NNE
FALCON 9 DEB 3.9 17:23:58 10° WNW 17:27:15 41° N 17:30:07 13° ENE
Cosmos 2058 Rocket 3.9 17:23:21 10° SSE 17:27:16 31° E 17:31:13 10° NNE
YAOGAN 6 4.2 17:25:58 10° SSW 17:29:25 40° W 17:32:56 10° NNW
CZ-4 R/B 2.2 17:26:07 10° SE 17:29:25 27° ENE 17:32:43 10° N
CZ-4B R/B 4.0 17:24:47 10° S 17:30:18 58° WSW 17:35:46 10° NNW
Cosmos 1400 Rocket 3.7 17:27:07 10° SSE 17:30:42 29° E 17:34:16 10° NNE
Lacrosse 5 2.9 17:26:09 10° W 17:30:53 38° NNW 17:35:34 10° NE
GENESIS II 4.4 17:27:44 10° SSW 17:31:41 57° SE 17:35:39 10° NE
ADEOS Rocket 3.7 17:26:27 10° N 17:32:40 64° WNW 17:39:33 10° SSW
ERBS 4.1 17:32:18 10° WNW 17:35:04 23° N 17:37:46 10° NE
ARGOS 4.3 17:32:27 10° ESE 17:36:32 22° ENE 17:40:39 10° N
USA 281 4.0 17:32:18 10° S 17:38:43 55° WSW 17:45:10 10° NNW
Cosmos 1908 4.5 17:36:21 10° SSW 17:40:01 44° WNW 17:43:46 10° N
Cosmos 1656 4.4 17:37:16 10° SSE 17:42:06 32° ESE 17:47:01 10° NE
Cosmos 2227 Rocket 2.4 17:37:25 10° NNW 17:42:57 51° NE 17:48:26 10° SE
FALCON 9 DEB 3.9 17:40:22 10° SSW 17:43:19 33° SE 17:44:57 20° E
Cosmos 292 Rocket 3.8 17:40:19 10° S 17:45:02 64° ESE 17:49:50 10° NNE
Cosmos 1892 3.4 17:42:22 10° N 17:45:55 33° ENE 17:49:28 10° SE
CZ-4B R/B 1.7 17:44:27 10° N 17:47:42 66° WNW 17:50:50 10° SSW
USA 305 3.3 17:44:11 10° WNW 17:48:25 52° NNE 17:51:12 20° E
FALCON 9 DEB 3.6 17:45:38 10° SW 17:48:37 37° SE 17:50:05 23° E
COSMO-SKYMED 1 2.6 17:45:26 10° NNE 17:49:44 57° E 17:54:00 10° S
Cosmos 2263 Rocket 3.8 17:46:12 10° N 17:49:45 16° NE 17:51:44 14° ENE
CSL-04 Rocket 4.2 17:47:32 10° SE 17:52:34 37° ENE 17:57:37 10° N
SL-4 R/B 2.0 17:49:45 10° W 17:53:14 55° N 17:55:22 23° ENE
H-2A R/B 4.0 17:49:36 10° N 17:53:15 29° WNW 17:56:48 10° SW
GEOS 3 Rocket 3.9 17:48:39 12° ESE 17:53:25 53° NE 17:58:39 10° NW
USA 306 3.2 17:50:33 10° WNW 17:54:46 54° NNE 17:57:16 23° E
Timation 2 Rocket 4.3 17:49:23 10° NNW 17:55:58 78° WSW 18:02:46 10° SSE
Cosmos 1346 Rocket 3.4 17:53:16 10° N 17:56:56 33° ENE 17:59:45 15° SE
Cosmos 1076 Rocket 4.4 17:53:54 10° NNE 17:57:30 26° ENE 17:58:50 22° E
H-2A R/B 2.6 17:53:12 10° SE 17:58:11 39° ENE 18:03:15 10° N
Cosmos 1300 2.7 17:55:12 10° SSW 17:59:00 81° W 18:02:51 10° N
CZ-2D R/B 3.1 17:55:21 10° SSE 17:59:08 73° ENE 18:02:57 10° N
FALCON 9 DEB 3.5 17:56:12 10° SW 17:59:19 43° SSE 18:00:24 30° E
Cosmos 1408 3.3 17:56:57 10° N 18:00:14 30° ENE 18:01:18 26° ESE
Okean O Rocket 3.8 17:57:06 10° SSW 18:00:54 29° W 18:04:44 10° NW
Cosmos 1697 Rocket 3.6 17:57:59 10° SSE 18:02:29 25° ESE 18:04:16 22° ENE
Ariane Rocket 4.3 18:04:42 19° ENE 18:04:55 20° ENE 18:08:31 10° NNE
YAOGAN 1 2.6 18:02:21 10° SSE 18:06:35 59° ENE 18:10:53 10° N
SL-08 ROCKET BODY 4.4 18:02:15 10° N 18:08:17 61° ENE 18:14:23 10° SSE
Cosmos 1825 3.3 18:06:35 10° NNE 18:09:07 25° NE 18:09:07 25° NE
FALCON 9 DEB 3.1 18:08:46 10° SW 18:11:56 56° SSE 18:12:34 45° ESE
Meteor 2-8 Rocket 4.3 18:08:44 10° S 18:14:50 79° E 18:21:00 10° NNE
Cosmos 1726 Rocket 4.3 18:14:19 10° SSW 18:18:35 55° WNW 18:22:55 10° N
ERS-2 4.2 18:16:44 10° N 18:19:54 28° WNW 18:23:03 10° SW
Cosmos 1689 Rocket 2.6 18:17:21 10° N 18:20:12 57° WNW 18:23:02 10° SSW
Cosmos 1553 Rocket 3.9 18:13:56 10° S 18:20:15 73° E 18:26:32 10° NNE
Cosmos 2297 Rocket 2.4 18:17:24 10° NNW 18:23:05 74° WSW 18:28:43 10° SSE
Cosmos 1340 3.1 18:19:31 10° NNW 18:23:16 63° W 18:26:59 10° S
NOSS 3-4 (A) 4.3 18:17:51 10° NW 18:24:11 41° NNE 18:27:19 28° E
NOSS 3-4 (C) 4.3 18:17:57 10° NW 18:24:16 41° NNE 18:27:24 28° E
Cosmos 1980 Rocket 4.2 18:20:43 10° SSE 18:21:05 11° SE 18:21:05 11° SE
In-Cosmos 22 Rocket 4.2 18:20:29 10° NNW 18:25:50 77° W 18:31:16 10° S
SL-08 RB Rocket 4.4 18:28:47 33° NE 18:28:47 33° NE 18:32:21 10° N
SeaSat 1 2.5 18:29:14 35° ESE 18:31:06 56° NE 18:35:57 10° NNW
CSL-04 Debris 4.1 18:26:13 10° SSE 18:31:37 75° ENE 18:37:07 10° NNW
Okean-O 3.1 18:28:02 10° S 18:32:25 63° WSW 18:36:51 10° NNW
NOSS 3-3 (A) 4.2 18:29:50 10° S 18:35:17 43° ESE 18:36:53 36° E
NOSS 3-3 (C) 4.2 18:29:56 10° S 18:35:24 43° ESE 18:37:00 36° E
Meteor 2-15 Rocket 4.4 18:30:15 10° S 18:36:17 62° E 18:42:21 10° NNE
USA 307 2.8 18:33:08 10° WNW 18:37:26 76° NNE 18:38:09 59° E
USA 215 3.5 18:36:03 32° E 18:38:59 56° NNE 18:45:21 10° WNW
CRYOSAT 2 4.2 18:37:16 10° N 18:42:09 73° E 18:47:00 10° S
USA 308 2.7 18:37:56 10° WNW 18:42:14 80° NNE 18:42:46 66° E
Cosmos 968 Rocket 3.7 18:39:03 10° NNW 18:44:16 69° WSW 18:49:24 10° S
Cosmos 1745 Rocket 4.0 18:38:06 10° N 18:44:25 87° W 18:50:45 10° S
Helios 1A Rocket 4.4 18:40:51 10° SSW 18:44:44 39° W 18:48:36 10° NNW
HJ-1C 4.2 18:46:16 43° N 18:46:16 43° N 18:48:40 10° NNW
ATLAS 2AS CENTAUR R/B 3.3 18:39:06 10° NW 18:46:24 44° NNE 18:48:35 36° ENE
Cosmos 1455 4.1 18:44:19 10° S 18:45:23 18° S 18:45:23 18° S
Meteor 2-15 4.4 18:43:03 10° S 18:49:12 88° W 18:55:23 10° N
Cosmos 2219 4.3 18:46:14 10° NW 18:51:40 44° WSW 18:57:04 10° S
CZ-4C R/B 3.7 18:49:22 10° NW 18:55:20 34° NNE 18:57:03 30° NE
SJ-11-01 4.4 18:51:59 12° S 18:56:15 71° WSW 19:00:57 10° NNW
MOS 1 Rocket 3.2 18:53:13 10° NNE 18:57:51 90° ESE 19:02:46 10° SSW
Cosmos 44 4.2 18:54:08 10° WSW 18:58:31 43° NW 19:01:00 24° NNE
CZ-2C R/B 3.9 18:53:02 10° S 18:58:43 56° W 19:04:18 10° NNW
Cosmos 220 Rocket 4.0 18:55:50 10° SSW 18:59:40 69° S 18:59:40 69° S
Cosmos 2082 3.7 18:55:31 10° NNW 19:01:17 80° WSW 19:03:45 36° SSE
Cosmos 2058 3.7 18:59:11 10° NNW 19:03:09 49° W 19:06:04 17° SSW
CZ-4 R/B 3.3 19:01:00 10° SSW 19:04:25 28° W 19:07:48 10° NW
Meteor 2-10 Rocket 3.8 19:03:58 10° SSW 19:09:15 66° WNW 19:14:23 10° N
Cosmos 1503 Rocket 4.2 19:04:37 10° NNW 19:09:49 69° WSW 19:11:33 42° S
ATLAS 5 CENTAUR R/B 4.0 19:09:37 10° NW 19:12:38 16° N 19:13:43 15° NNE
Cosmos 1709 Rocket 3.9 19:07:56 10° N 19:14:20 89° W 19:17:52 29° S
Lacrosse 5 2.8 19:10:09 10° WNW 19:14:46 36° N 19:14:46 36° N
Cosmos 2369 3.6 19:09:20 10° SSW 19:14:49 74° SE 19:14:49 74° SE
Timation 1 Rocket 4.2 19:09:19 10° NNW 19:15:23 90° ENE 19:16:23 64° SSE
BREEZE-M R/B 3.9 19:10:52 10° WNW 19:15:26 82° SSW 19:16:54 58° ESE
ARGOS 3.4 19:13:21 28° S 19:16:19 70° WSW 19:21:46 10° NNW
Cosmos 1354 Rocket 4.3 19:15:32 10° NNW 19:20:45 64° WSW 19:21:46 52° SSW
Atlas Centaur 2 4.5 19:17:29 10° SW 19:23:08 20° S 19:23:52 19° S
Cosmos 1656 4.5 19:20:09 10° SW 19:25:33 49° NW 19:29:34 18° NNE
Cosmos 2227 Rocket 3.9 19:21:52 10° NW 19:26:46 31° WSW 19:31:38 10° SSW
USA 305 4.1 19:24:18 10° WNW 19:27:20 41° W 19:27:20 41° W
SJ 16-02 4.0 19:26:20 10° N 19:26:22 10° N 19:26:22 10° N
Cosmos 2315 Rocket 3.9 19:26:31 10° S 19:32:43 89° W 19:38:57 10° N
SL-4 R/B 4.0 19:29:20 10° WNW 19:30:57 25° WNW 19:30:57 25° WNW
USA 306 4.4 19:30:41 10° WNW 19:33:25 35° W 19:33:25 35° W
Cosmos 2263 Rocket 2.8 19:29:15 10° NNW 19:33:25 45° N 19:33:25 45° N
H-2A R/B 3.5 19:32:40 10° SSW 19:37:37 36° W 19:42:39 10° NNW
Ariane Rocket 3.9 19:44:55 45° NNW 19:44:55 45° NNW 19:48:29 10° NNW
Cosmos 1697 Rocket 3.1 19:40:30 10° SW 19:46:03 60° WNW 19:46:04 60° NW
SeaSat 1 4.3 20:09:02 26° WSW 20:09:02 26° WSW 20:13:01 10° NW
NOSS 3-4 (A) 4.1 20:08:41 10° NW 20:14:46 65° W 20:14:46 65° W
NOSS 3-4 (C) 4.1 20:08:47 10° NW 20:14:51 65° W 20:14:51 65° W
USA 215 3.8 20:23:24 54° W 20:23:24 54° W 20:28:28 10° WNW
ATLAS 2AS CENTAUR R/B 3.5 20:30:24 10° NW 20:36:01 50° WNW 20:36:01 50° WNW
CZ-4C R/B 3.7 20:37:47 10° NW 20:42:14 45° NW 20:42:14 45° NW
